Flagstaff, AZ

6:45 AM MST on November 23, 2017 (GMT -0700)
Flagstaff Pulliam

Weather History for KFLG - November, 2011

Change the Weather History Date:

Thursday, November 10, 2011

  Actual Average Record
Temperature  
Mean Temperature 33 °F 39 °F  
Max Temperature 44 °F 53 °F 71 °F (1973)
Min Temperature 21 °F 25 °F 5 °F (1946)
Degree Days  
Heating Degree Days 32 26  
Month to date heating degree days 327 248  
Since 1 July heating degree days 1068 1131  
Cooling Degree Days 0 0  
Month to date cooling degree days 0 0  
Year to date cooling degree days 170 117  
Moisture  
Dew Point 20 °F    
Average Humidity 59    
Maximum Humidity 85    
Minimum Humidity 33    
Precipitation  
Precipitation 0.00 in 0.06 in 1.90 in (1923)
Month to date precipitation 1.52 0.57  
Year to date precipitation 18.27 18.80  
Snow  
Snow 0.00 in 0.20 in 6.20 in (1982)
Month to date snowfall 12.5 2.2  
Since 1 July snowfall 12.5 3.7  
Snow Depth 2.00 in    
Sea Level Pressure  
Sea Level Pressure 30.36 in    
Wind  
Wind Speed 6 mph (ENE)    
Max Wind Speed 14 mph    
Max Gust Speed 21 mph    
Visibility 10 miles    
Events      
T = Trace of Precipitation, MM = Missing Value Source: NWS Daily Summary

Daily Weather History Graph

Daily Weather History Graph

Search for Another Location

Airport or City:

Trip Planner

Search our weather history database for the weather conditions in past years. The results will help you decide how hot, cold, wet, or windy it might be!

Date:

Astronomy

Nov. 10, 2011 Rise Set
Actual Time 6:56 AM MST 5:24 PM MST
Civil Twilight 6:29 AM MST 5:51 PM MST
Nautical Twilight 5:59 AM MST 6:21 PM MST
Astronomical Twilight 5:29 AM MST 6:51 PM MST
Moon 5:16 PM MST (11/10) 6:50 AM MST (11/10)
Length of Visible Light 11h 21m
Length of Day
10h 28m
Full, 100% of the Moon is Illuminated
Nov 10
Full
Nov 10
Full
Nov 18
Last Quarter
Nov 24
New
Dec 2
First Quarter

Hourly Weather History & Observations

Time (MST) Temp. Windchill Dew Point Humidity Pressure Visibility Wind Dir Wind Speed Gust Speed Precip Events Conditions
12:57 AM 30.9 °F 26.2 °F 18.0 °F 59% 30.40 in 10.0 mi Variable 4.6 mph - N/A   Clear
1:57 AM 28.9 °F 21.9 °F 18.0 °F 64% 30.41 in 10.0 mi East 6.9 mph - N/A   Clear
2:57 AM 25.0 °F 20.7 °F 18.0 °F 75% 30.44 in 10.0 mi SW 3.5 mph - N/A   Clear
3:57 AM 23.0 °F - 17.1 °F 78% 30.44 in 10.0 mi Calm Calm - N/A   Clear
4:57 AM 24.1 °F 14.4 °F 18.0 °F 77% 30.44 in 10.0 mi ENE 9.2 mph - N/A   Clear
5:57 AM 27.0 °F 16.1 °F 19.9 °F 75% 30.45 in 10.0 mi ENE 12.7 mph - N/A   Clear
6:57 AM 28.9 °F 21.1 °F 19.9 °F 69% 30.46 in 10.0 mi ENE 8.1 mph - N/A   Clear
7:57 AM 30.0 °F 22.4 °F 21.0 °F 69% 30.47 in 10.0 mi ENE 8.1 mph - N/A   Clear
8:57 AM 34.0 °F 26.0 °F 19.9 °F 56% 30.45 in 10.0 mi ENE 10.4 mph - N/A   Clear
9:57 AM 37.0 °F 29.3 °F 21.9 °F 54% 30.43 in 10.0 mi NE 11.5 mph - N/A   Clear
10:57 AM 39.9 °F 33.4 °F 19.0 °F 43% 30.42 in 10.0 mi NNE 10.4 mph - N/A   Clear
11:57 AM 41.0 °F 34.7 °F 19.9 °F 43% 30.38 in 10.0 mi ENE 10.4 mph - N/A   Clear
12:57 PM 43.0 °F 37.7 °F 19.0 °F 38% 30.32 in 10.0 mi ENE 9.2 mph - N/A   Clear
1:57 PM 44.1 °F 39.0 °F 18.0 °F 35% 30.30 in 10.0 mi ENE 9.2 mph - N/A   Clear
2:57 PM 42.1 °F 36.6 °F 18.0 °F 38% 30.30 in 10.0 mi ENE 9.2 mph - N/A   Clear
3:57 PM 42.1 °F 37.7 °F 19.9 °F 41% 30.30 in 10.0 mi ENE 6.9 mph - N/A   Clear
4:57 PM 37.9 °F 35.5 °F 21.0 °F 51% 30.30 in 10.0 mi ENE 3.5 mph - N/A   Clear
5:57 PM 33.1 °F - 19.9 °F 59% 30.31 in 10.0 mi Calm Calm - N/A   Clear
6:57 PM 30.9 °F 27.5 °F 21.9 °F 69% 30.30 in 10.0 mi NNE 3.5 mph - N/A   Clear
7:57 PM 30.0 °F - 23.0 °F 75% 30.29 in 10.0 mi Calm Calm - N/A   Clear
8:57 PM 28.9 °F - 23.0 °F 78% 30.27 in 10.0 mi Calm Calm - N/A   Clear
9:57 PM 28.9 °F - 21.9 °F 75% 30.26 in 10.0 mi Calm Calm - N/A   Clear
10:57 PM 28.9 °F - 24.1 °F 82% 30.22 in 10.0 mi Calm Calm - N/A   Clear
11:57 PM 28.9 °F - 23.0 °F 78% 30.20 in 10.0 mi Calm Calm - N/A   Clear